Terminal Aerodrome Forecast
Issued by NWS Chicago, IL

Home | Current Version | Previous Version | Graphics & Text | Print | Product List | Glossary On
Versions: 1 2 3 4 5 6 7 8 9 10 11 12 13 14 15 16 17 18 19 20 21 22 23 24 25 26 27 28 29 30 31 32
844
FTUS43 KLOT 290325 AAA
TAFRFD
TAF AMD
KRFD 290325Z 2903/2924 11003KT P6SM BKN250
     FM290700 09003KT 2SM BR FEW005 SCT250
      TEMPO 2911/2913 1/2SM FG SCT005
     FM291400 11007KT P6SM SCT030 SCT250
     FM292000 14007KT P6SM BKN030=

USA.gov is the U.S. government's official web portal to all federal, state and local government web resources and services.